User: anonymous   Login
Location: B?jaj?g
(11.7167°N, 92.6667°E)
Time: 02:26:51
(UTC+00:00)
Language:

Meteor 1-14 Rocket - Orbit

View from above orbital plane
View from above orbital plane
View from above satellite
View from above satellite

Ground track
Ground track

The orbit data is extracted from the following two-line orbital elements,

1 06393U 73015B   21127.39156484  .00000032  00000-0  12585-4 0  9990
2 06393  81.2588  19.3921 0057589 244.2514 115.2703 14.05034626466158
Epoch (UTC): 07 May 2021 09:23:51
Eccentricity: 0.0057589
inclination: 81.2588°
perigee height: 834 km
apogee height: 918 km
right ascension of ascending node: 19.3921°
argument of perigee: 244.2514°
revolutions per day: 14.05034626
mean anomaly at epoch: 115.2703°
orbit number at epoch: 46615

The dashed part of the orbit path shows where the satellite is in the earth's shadow,  

DLR